| time (UTC) | temp F | wind direction | speed MPH | gust MPH | rain 1hr in | rain 24hr in | rain mn in | humidity % | barometer mb |
| 20260507061117 | 57 | 339 | 1.0 | 1.0 | 0.07 | 0.02 | 0.02 | 91 | 1011.8 |
| 20260507060615 | 57 | 1 | 4.0 | 4.0 | 0.07 | 0.02 | 0.02 | 90 | 1011.6 |
| 20260507060111 | 57 | 25 | 7.0 | 8.0 | 0.00 | 0.01 | 0.01 | 90 | 1011.9 |
| 20260507055606 | 57 | 323 | 6.0 | 7.0 | 0.00 | 0.01 | 0.01 | 90 | 1011.9 |
| 20260507055103 | 57 | 6 | 8.0 | 10.0 | 0.00 | 0.01 | 0.01 | 93 | 1011.8 |
| 20260507054559 | 57 | 323 | 7.0 | 8.0 | 0.00 | 0.01 | 0.01 | 96 | 1011.8 |
| 20260507054056 | 57 | 347 | 5.0 | 6.0 | 0.07 | 0.01 | 0.01 | 95 | 1011.9 |
| 20260507053554 | 57 | 344 | 6.0 | 7.0 | 0.07 | 0.01 | 0.01 | 94 | 1011.6 |
| 20260507053052 | 58 | 316 | 8.0 | 9.0 | 0.07 | 0.01 | 0.01 | 92 | 1011.9 |
| 20260507052550 | 59 | 19 | 6.0 | 7.0 | 0.00 | 0.00 | 0.00 | 90 | 1012.0 |
| 20260507052046 | 60 | 349 | 4.0 | 8.0 | 0.00 | 0.00 | 0.00 | 86 | 1012.1 |
| 20260507051544 | 61 | 329 | 6.0 | 8.0 | 0.00 | 0.00 | 0.00 | 82 | 1012.0 |
| 20260507051040 | 61 | 329 | 4.0 | 4.0 | 0.00 | 0.00 | 0.00 | 80 | 1012.2 |
| 20260507050537 | 62 | 320 | 1.0 | 2.0 | 0.00 | 0.00 | 0.00 | 79 | 1012.2 |
| 20260507050033 | 62 | 330 | 4.0 | 4.0 | 0.00 | 0.00 | 0.00 | 79 | 1012.0 |
| 20260507045530 | 62 | 322 | 4.0 | 6.0 | 0.00 | 0.00 | 0.00 | 78 | 1011.7 |
| 20260507045027 | 62 | 11 | 0.0 | 0.0 | 0.00 | 0.00 | 0.00 | 78 | 1011.9 |
| 20260507044524 | 63 | 329 | 5.0 | 7.0 | 0.00 | 0.00 | 0.00 | 77 | 1011.5 |
| 20260507044021 | 63 | 317 | 3.0 | 6.0 | 0.00 | 0.00 | 0.00 | 76 | 1011.4 |
| 20260507043517 | 63 | 316 | 6.0 | 10.0 | 0.00 | 0.00 | 0.00 | 76 | 1011.6 |
| 20260507043014 | 64 | 359 | 3.0 | 4.0 | 0.00 | 0.00 | 0.00 | 82 | 1011.7 |
| 20260507042510 | 64 | 330 | 4.0 | 4.0 | 0.00 | 0.00 | 0.00 | 81 | 1011.2 |
| 20260507042006 | 64 | 337 | 4.0 | 4.0 | 0.00 | 0.00 | 0.00 | 81 | 1011.4 |
| 20260507041503 | 64 | 326 | 4.0 | 4.0 | 0.00 | 0.00 | 0.00 | 81 | 1011.2 |
| 20260507041000 | 64 | 312 | 2.0 | 2.0 | 0.00 | 0.00 | 0.00 | 82 | 1011.0 |
| 20260507040455 | 64 | 330 | 2.0 | 2.0 | 0.00 | 0.00 | 0.00 | 81 | 1010.8 |
| 20260507035951 | 64 | 331 | 2.0 | 2.0 | 0.00 | 0.14 | 0.14 | 81 | 1010.6 |
| 20260507035448 | 64 | 322 | 1.0 | 2.0 | 0.00 | 0.14 | 0.14 | 80 | 1010.9 |
| 20260507034945 | 64 | 303 | 2.0 | 3.0 | 0.00 | 0.14 | 0.14 | 80 | 1011.1 |
| 20260507034442 | 64 | 341 | 3.0 | 4.0 | 0.00 | 0.14 | 0.14 | 80 | 1011.2 |
| 20260507033940 | 64 | 336 | 1.0 | 1.0 | 0.00 | 0.14 | 0.14 | 81 | 1011.4 |
| 20260507033438 | 64 | 343 | 3.0 | 3.0 | 0.00 | 0.14 | 0.14 | 80 | 1011.3 |
| 20260507032934 | 64 | 289 | 2.0 | 2.0 | 0.00 | 0.14 | 0.14 | 80 | 1010.9 |
| 20260507032431 | 64 | 349 | 1.0 | 2.0 | 0.00 | 0.14 | 0.14 | 79 | 1011.1 |
| 20260507031927 | 65 | 358 | 1.0 | 1.0 | 0.00 | 0.14 | 0.14 | 79 | 1011.1 |
| 20260507031426 | 65 | 348 | 0.0 | 0.0 | 0.00 | 0.14 | 0.14 | 77 | 1010.9 |
| 20260507030921 | 65 | 267 | 2.0 | 2.0 | 0.00 | 0.14 | 0.14 | 77 | 1011.0 |
| 20260507030418 | 66 | 339 | 2.0 | 4.0 | 0.00 | 0.14 | 0.14 | 78 | 1010.8 |
| 20260507025915 | 66 | 26 | 0.0 | 1.0 | 0.00 | 0.14 | 0.14 | 78 | 1010.7 |
| 20260507025412 | 66 | 339 | 1.0 | 1.0 | 0.00 | 0.14 | 0.14 | 80 | 1010.9 |
| 20260507024910 | 67 | 10 | 0.0 | 1.0 | 0.00 | 0.14 | 0.14 | 83 | 1010.8 |
| 20260507024407 | 67 | 2 | 0.0 | 0.0 | 0.00 | 0.14 | 0.14 | 83 | 1010.8 |
| 20260507023903 | 67 | 3 | 1.0 | 1.0 | 0.00 | 0.14 | 0.14 | 84 | 1010.4 |
| 20260507023400 | 67 | 13 | 1.0 | 1.0 | 0.00 | 0.14 | 0.14 | 85 | 1010.3 |
| 20260507022857 | 67 | 183 | 1.0 | 1.0 | 0.00 | 0.14 | 0.14 | 86 | 1010.3 |
| 20260507022354 | 67 | 27 | 0.0 | 0.0 | 0.00 | 0.14 | 0.14 | 86 | 1010.4 |
| 20260507021850 | 66 | 42 | 0.0 | 1.0 | 0.00 | 0.14 | 0.14 | 87 | 1010.3 |
| 20260507021345 | 66 | 19 | 0.0 | 0.0 | 0.00 | 0.14 | 0.14 | 89 | 1010.2 |
| 20260507020843 | 66 | 6 | 0.0 | 0.0 | 0.00 | 0.14 | 0.14 | 88 | 1010.3 |
| 20260507020339 | 66 | 11 | 0.0 | 0.0 | 0.00 | 0.14 | 0.14 | 87 | 1010.0 |
| 20260507015837 | 66 | 2 | 0.0 | 0.0 | 0.00 | 0.14 | 0.14 | 87 | 1010.0 |
| 20260507015335 | 66 | 12 | 0.0 | 1.0 | 0.00 | 0.14 | 0.14 | 87 | 1010.0 |
| 20260507014831 | 67 | 23 | 0.0 | 0.0 | 0.00 | 0.14 | 0.14 | 86 | 1010.3 |
| 20260507014328 | 67 | 28 | 0.0 | 0.0 | 0.00 | 0.14 | 0.14 | 86 | 1010.3 |
| 20260507013824 | 67 | 28 | 0.0 | 0.0 | 0.00 | 0.14 | 0.14 | 86 | 1010.6 |
| 20260507013321 | 67 | 28 | 0.0 | 0.0 | 0.00 | 0.14 | 0.14 | 86 | 1010.5 |
| 20260507012819 | 67 | 36 | 0.0 | 0.0 | 0.00 | 0.14 | 0.14 | 86 | 1010.5 |
| 20260507012314 | 67 | 36 | 0.0 | 0.0 | 0.00 | 0.14 | 0.14 | 86 | 1010.6 |
| 20260507011811 | 67 | 41 | 0.0 | 0.0 | 0.00 | 0.14 | 0.14 | 85 | 1010.6 |
| 20260507011308 | 67 | 25 | 0.0 | 0.0 | 0.00 | 0.14 | 0.14 | 85 | 1010.6 |
| 20260507010808 | 67 | 25 | 0.0 | 0.0 | 0.00 | 0.14 | 0.14 | 85 | 1010.3 |
| 20260507010304 | 67 | 17 | 0.0 | 0.0 | 0.00 | 0.14 | 0.14 | 85 | 1010.4 |
| 20260507005801 | 67 | 16 | 0.0 | 0.0 | 0.00 | 0.14 | 0.14 | 84 | 1010.3 |
| 20260507005257 | 68 | 38 | 0.0 | 0.0 | 0.00 | 0.14 | 0.14 | 84 | 1010.2 |
| 20260507004754 | 68 | 41 | 0.0 | 0.0 | 0.00 | 0.14 | 0.14 | 83 | 1010.4 |
| 20260507004252 | 68 | 12 | 0.0 | 0.0 | 0.00 | 0.14 | 0.14 | 82 | 1010.0 |
| 20260507003748 | 68 | 53 | 1.0 | 2.0 | 0.00 | 0.14 | 0.14 | 81 | 1009.8 |
| 20260507003243 | 68 | 18 | 0.0 | 0.0 | 0.00 | 0.14 | 0.14 | 81 | 1010.3 |
| 20260507002739 | 68 | 44 | 0.0 | 1.0 | 0.00 | 0.14 | 0.14 | 81 | 1009.9 |
| 20260507002236 | 68 | 104 | 1.0 | 2.0 | 0.00 | 0.14 | 0.14 | 81 | 1010.0 |
| 20260507001732 | 68 | 22 | 0.0 | 0.0 | 0.00 | 0.14 | 0.14 | 81 | 1010.1 |
| 20260507001230 | 68 | 36 | 0.0 | 1.0 | 0.00 | 0.14 | 0.14 | 82 | 1010.1 |
| 20260507000726 | 68 | 157 | 4.0 | 4.0 | 0.00 | 0.14 | 0.14 | 81 | 1010.2 |
| 20260507000222 | 69 | 171 | 2.0 | 2.0 | 0.00 | 0.14 | 0.14 | 80 | 1009.8 |
| 20260506235719 | 69 | 59 | 0.0 | 1.0 | 0.00 | 0.14 | 0.14 | 80 | 1009.9 |
| 20260506235214 | 69 | 40 | 1.0 | 1.0 | 0.00 | 0.14 | 0.14 | 81 | 1010.4 |
| 20260506234711 | 69 | 49 | 0.0 | 1.0 | 0.00 | 0.14 | 0.14 | 81 | 1009.8 |
| 20260506234209 | 69 | 35 | 0.0 | 0.0 | 0.00 | 0.14 | 0.14 | 80 | 1009.6 |
| 20260506233706 | 69 | 15 | 0.0 | 0.0 | 0.00 | 0.14 | 0.14 | 81 | 1009.7 |
| 20260506233202 | 69 | 48 | 0.0 | 0.0 | 0.00 | 0.14 | 0.14 | 80 | 1009.7 |
| 20260506232659 | 69 | 195 | 2.0 | 3.0 | 0.00 | 0.14 | 0.14 | 79 | 1009.4 |
| 20260506232154 | 69 | 39 | 0.0 | 0.0 | 0.00 | 0.14 | 0.14 | 79 | 1009.3 |
| 20260506231651 | 69 | 354 | 0.0 | 1.0 | 0.00 | 0.14 | 0.14 | 79 | 1009.5 |
| 20260506231150 | 69 | 31 | 0.0 | 0.0 | 0.00 | 0.14 | 0.14 | 79 | 1009.8 |
| 20260506230646 | 69 | 72 | 1.0 | 2.0 | 0.00 | 0.14 | 0.14 | 80 | 1009.6 |
| 20260506230143 | 70 | 25 | 2.0 | 2.0 | 0.00 | 0.14 | 0.14 | 79 | 1009.3 |
| 20260506225640 | 70 | 100 | 2.0 | 3.0 | 0.00 | 0.14 | 0.14 | 78 | 1009.3 |
| 20260506225137 | 70 | 76 | 1.0 | 1.0 | 0.00 | 0.14 | 0.14 | 79 | 1009.5 |
| 20260506224633 | 70 | 28 | 0.0 | 0.0 | 0.00 | 0.14 | 0.14 | 79 | 1009.4 |
| 20260506224130 | 70 | 35 | 0.0 | 0.0 | 0.00 | 0.14 | 0.14 | 79 | 1009.5 |
| 20260506223626 | 70 | 93 | 1.0 | 2.0 | 0.00 | 0.14 | 0.14 | 79 | 1009.5 |
| 20260506223122 | 70 | 60 | 1.0 | 1.0 | 0.00 | 0.14 | 0.14 | 77 | 1009.6 |
| 20260506222619 | 70 | 109 | 1.0 | 2.0 | 0.00 | 0.14 | 0.14 | 78 | 1009.4 |
| 20260506222115 | 70 | 90 | 0.0 | 1.0 | 0.00 | 0.14 | 0.14 | 78 | 1009.5 |
| 20260506221613 | 70 | 101 | 2.0 | 2.0 | 0.00 | 0.14 | 0.14 | 78 | 1009.4 |
| 20260506221111 | 70 | 40 | 0.0 | 0.0 | 0.00 | 0.14 | 0.14 | 78 | 1009.6 |
| 20260506220607 | 70 | 26 | 0.0 | 1.0 | 0.00 | 0.14 | 0.14 | 77 | 1009.6 |
| 20260506215559 | 71 | 21 | 0.0 | 1.0 | 0.00 | 0.14 | 0.14 | 76 | 1009.5 |
| 20260506215055 | 71 | 12 | 2.0 | 2.0 | 0.00 | 0.14 | 0.14 | 77 | 1009.6 |
| 20260506214552 | 71 | 24 | 0.0 | 0.0 | 0.00 | 0.14 | 0.14 | 76 | 1009.5 |
| 20260506214049 | 71 | 37 | 0.0 | 1.0 | 0.00 | 0.14 | 0.14 | 76 | 1009.4 |
| 20260506213547 | 71 | 7 | 1.0 | 2.0 | 0.00 | 0.14 | 0.14 | 76 | 1009.4 |
| 20260506213044 | 71 | 197 | 1.0 | 1.0 | 0.00 | 0.14 | 0.14 | 74 | 1009.1 |
| 20260506212541 | 71 | 5 | 2.0 | 2.0 | 0.00 | 0.14 | 0.14 | 75 | 1009.2 |
| 20260506212036 | 71 | 38 | 0.0 | 0.0 | 0.00 | 0.14 | 0.14 | 75 | 1009.2 |
| 20260506211532 | 71 | 111 | 1.0 | 2.0 | 0.00 | 0.14 | 0.14 | 76 | 1009.3 |
| 20260506211030 | 71 | 38 | 1.0 | 1.0 | 0.00 | 0.14 | 0.14 | 76 | 1009.2 |
| 20260506210526 | 71 | 295 | 1.0 | 1.0 | 0.00 | 0.14 | 0.14 | 75 | 1009.0 |
| 20260506210023 | 71 | 24 | 0.0 | 1.0 | 0.00 | 0.14 | 0.14 | 75 | 1009.0 |
| 20260506205520 | 71 | 65 | 1.0 | 1.0 | 0.00 | 0.14 | 0.14 | 75 | 1008.9 |
| 20260506205015 | 71 | 10 | 0.0 | 0.0 | 0.00 | 0.14 | 0.14 | 77 | 1009.0 |
| 20260506204513 | 71 | 70 | 2.0 | 3.0 | 0.00 | 0.14 | 0.14 | 76 | 1009.0 |
| 20260506204010 | 71 | 97 | 1.0 | 1.0 | 0.00 | 0.14 | 0.14 | 75 | 1009.0 |
| 20260506203508 | 71 | 75 | 3.0 | 4.0 | 0.00 | 0.14 | 0.14 | 75 | 1009.0 |
| 20260506203004 | 72 | 6 | 2.0 | 2.0 | 0.00 | 0.14 | 0.14 | 74 | 1009.0 |
| 20260506202502 | 71 | 22 | 1.0 | 1.0 | 0.00 | 0.14 | 0.14 | 75 | 1008.8 |
| 20260506201957 | 72 | 18 | 2.0 | 2.0 | 0.00 | 0.14 | 0.14 | 73 | 1008.9 |
| 20260506201456 | 73 | 5 | 2.0 | 3.0 | 0.00 | 0.14 | 0.14 | 72 | 1008.8 |
| 20260506200952 | 73 | 308 | 2.0 | 3.0 | 0.00 | 0.14 | 0.14 | 72 | 1009.1 |
| 20260506200448 | 72 | 13 | 1.0 | 2.0 | 0.00 | 0.14 | 0.14 | 72 | 1008.7 |
| 20260506195945 | 72 | 32 | 2.0 | 2.0 | 0.00 | 0.14 | 0.14 | 75 | 1008.9 |
| 20260506195442 | 72 | 261 | 2.0 | 2.0 | 0.00 | 0.14 | 0.14 | 73 | 1008.8 |
| 20260506194938 | 72 | 126 | 3.0 | 4.0 | 0.00 | 0.14 | 0.14 | 72 | 1008.9 |
| 20260506194436 | 72 | 30 | 2.0 | 2.0 | 0.00 | 0.14 | 0.14 | 73 | 1008.9 |
| 20260506193932 | 71 | 75 | 3.0 | 3.0 | 0.00 | 0.14 | 0.14 | 74 | 1008.9 |
| 20260506193430 | 71 | 136 | 2.0 | 2.0 | 0.00 | 0.14 | 0.14 | 75 | 1009.1 |
| 20260506192926 | 71 | 243 | 3.0 | 6.0 | 0.00 | 0.14 | 0.14 | 73 | 1008.9 |
| 20260506192423 | 72 | 94 | 2.0 | 3.0 | 0.00 | 0.14 | 0.14 | 74 | 1009.0 |
| 20260506191920 | 71 | 82 | 2.0 | 3.0 | 0.00 | 0.14 | 0.14 | 74 | 1008.9 |
| 20260506191416 | 72 | 175 | 1.0 | 2.0 | 0.00 | 0.14 | 0.14 | 74 | 1009.2 |
| 20260506190913 | 71 | 204 | 1.0 | 1.0 | 0.00 | 0.14 | 0.14 | 76 | 1009.4 |
| 20260506190410 | 71 | 8 | 1.0 | 2.0 | 0.00 | 0.14 | 0.14 | 76 | 1009.3 |
| 20260506185907 | 70 | 63 | 2.0 | 3.0 | 0.00 | 0.14 | 0.14 | 76 | 1009.5 |
| 20260506185404 | 70 | 32 | 0.0 | 1.0 | 0.00 | 0.14 | 0.14 | 77 | 1009.4 |
| 20260506184901 | 70 | 36 | 1.0 | 2.0 | 0.00 | 0.14 | 0.14 | 76 | 1009.5 |
| 20260506184358 | 71 | 77 | 2.0 | 3.0 | 0.00 | 0.14 | 0.14 | 77 | 1009.6 |
| 20260506183855 | 70 | 32 | 0.0 | 1.0 | 0.00 | 0.14 | 0.14 | 78 | 1009.6 |
| 20260506183350 | 70 | 152 | 2.0 | 2.0 | 0.00 | 0.14 | 0.14 | 78 | 1009.6 |
| 20260506182848 | 70 | 26 | 2.0 | 2.0 | 0.00 | 0.14 | 0.14 | 78 | 1009.8 |
| 20260506182345 | 70 | 11 | 2.0 | 3.0 | 0.00 | 0.14 | 0.14 | 79 | 1009.7 |
| 20260506181842 | 69 | 349 | 2.0 | 3.0 | 0.00 | 0.14 | 0.14 | 79 | 1009.9 |
| 20260506181340 | 69 | 78 | 0.0 | 1.0 | 0.00 | 0.14 | 0.14 | 79 | 1010.0 |
| 20260506180831 | 69 | 220 | 3.0 | 4.0 | 0.00 | 0.14 | 0.14 | 79 | 1009.9 |
| 20260506180327 | 68 | 239 | 9.0 | 13.0 | 0.00 | 0.14 | 0.14 | 79 | 1010.0 |
| 20260506175823 | 68 | 321 | 1.0 | 1.0 | 0.00 | 0.14 | 0.14 | 81 | 1010.0 |
| 20260506175320 | 68 | 4 | 2.0 | 4.0 | 0.00 | 0.14 | 0.14 | 81 | 1009.9 |
| 20260506174818 | 68 | 124 | 1.0 | 2.0 | 0.00 | 0.14 | 0.14 | 79 | 1010.0 |
| 20260506174315 | 68 | 3 | 1.0 | 1.0 | 0.00 | 0.14 | 0.14 | 83 | 1009.9 |
| 20260506173813 | 67 | 325 | 2.0 | 3.0 | 0.00 | 0.14 | 0.14 | 83 | 1010.0 |
| 20260506173309 | 68 | 89 | 4.0 | 6.0 | 0.00 | 0.14 | 0.14 | 82 | 1009.8 |
| 20260506172806 | 67 | 170 | 5.0 | 7.0 | 0.00 | 0.14 | 0.14 | 83 | 1010.2 |
| 20260506172306 | 67 | 129 | 3.0 | 4.0 | 0.00 | 0.14 | 0.14 | 83 | 1010.0 |
| 20260506171800 | 67 | 184 | 3.0 | 4.0 | 0.00 | 0.14 | 0.14 | 84 | 1010.0 |
| 20260506171257 | 67 | 52 | 1.0 | 2.0 | 0.00 | 0.14 | 0.14 | 86 | 1010.0 |
| 20260506170755 | 67 | 117 | 3.0 | 3.0 | 0.00 | 0.14 | 0.14 | 86 | 1010.1 |
| 20260506170251 | 66 | 98 | 4.0 | 6.0 | 0.00 | 0.14 | 0.14 | 86 | 1010.1 |
| 20260506165750 | 66 | 105 | 1.0 | 1.0 | 0.00 | 0.14 | 0.14 | 90 | 1010.2 |
| 20260506165247 | 65 | 102 | 0.0 | 1.0 | 0.00 | 0.14 | 0.14 | 90 | 1010.5 |
| 20260506164744 | 65 | 49 | 1.0 | 2.0 | 0.00 | 0.14 | 0.14 | 90 | 1010.6 |
| 20260506164241 | 64 | 163 | 2.0 | 3.0 | 0.00 | 0.14 | 0.14 | 91 | 1010.5 |
| 20260506163737 | 64 | 69 | 2.0 | 3.0 | 0.00 | 0.14 | 0.14 | 91 | 1010.4 |
| 20260506163231 | 65 | 23 | 1.0 | 1.0 | 0.00 | 0.14 | 0.14 | 92 | 1010.3 |
| 20260506162728 | 64 | 20 | 1.0 | 2.0 | 0.00 | 0.14 | 0.14 | 92 | 1010.3 |
| 20260506162226 | 64 | 170 | 3.0 | 7.0 | 0.00 | 0.14 | 0.14 | 92 | 1010.4 |
| 20260506161723 | 64 | 143 | 2.0 | 3.0 | 0.00 | 0.14 | 0.14 | 92 | 1010.3 |
| 20260506161220 | 64 | 150 | 2.0 | 3.0 | 0.00 | 0.14 | 0.14 | 94 | 1010.5 |
| 20260506160718 | 63 | 35 | 1.0 | 1.0 | 0.00 | 0.14 | 0.14 | 94 | 1010.3 |
| 20260506160214 | 63 | 74 | 2.0 | 2.0 | 0.00 | 0.14 | 0.14 | 95 | 1010.7 |
| 20260506155713 | 62 | 64 | 1.0 | 1.0 | 0.00 | 0.14 | 0.14 | 95 | 1010.9 |
| 20260506155209 | 62 | 81 | 4.0 | 7.0 | 0.05 | 0.14 | 0.14 | 95 | 1010.8 |
| 20260506153311 | 62 | 231 | 4.0 | 7.0 | 0.00 | 0.13 | 0.13 | 96 | 1010.6 |
| 20260506152809 | 62 | 200 | 3.0 | 4.0 | 0.00 | 0.13 | 0.13 | 96 | 1010.8 |
| 20260506152306 | 62 | 69 | 2.0 | 3.0 | 0.00 | 0.13 | 0.13 | 96 | 1011.1 |
| 20260506151805 | 62 | 135 | 2.0 | 2.0 | 0.00 | 0.13 | 0.13 | 95 | 1011.2 |
| 20260506151301 | 61 | 131 | 3.0 | 4.0 | 0.07 | 0.13 | 0.13 | 95 | 1011.4 |
| 20260506150757 | 61 | 107 | 4.0 | 4.0 | 0.12 | 0.13 | 0.13 | 95 | 1011.6 |
| 20260506150303 | 61 | 50 | 0.0 | 0.0 | 0.12 | 0.12 | 0.12 | 95 | 1011.6 |
| 20260506145752 | 61 | 114 | 2.0 | 6.0 | 0.19 | 0.11 | 0.11 | 95 | 1011.5 |
| 20260506145248 | 62 | 134 | 2.0 | 4.0 | 0.24 | 0.10 | 0.10 | 94 | 1011.5 |
| 20260506144746 | 62 | 44 | 0.0 | 0.0 | 0.24 | 0.08 | 0.08 | 94 | 1011.5 |
| 20260506144242 | 62 | 158 | 3.0 | 3.0 | 0.12 | 0.06 | 0.06 | 92 | 1011.5 |
| 20260506143740 | 62 | 92 | 1.0 | 2.0 | 0.07 | 0.04 | 0.04 | 92 | 1011.6 |
| 20260506143237 | 62 | 176 | 1.0 | 1.0 | 0.07 | 0.04 | 0.04 | 92 | 1011.4 |
| 20260506142736 | 62 | 197 | 1.0 | 1.0 | 0.12 | 0.04 | 0.04 | 92 | 1011.5 |
| 20260506142233 | 62 | 5 | 1.0 | 2.0 | 0.12 | 0.03 | 0.03 | 91 | 1011.5 |
| 20260506141731 | 63 | 78 | 0.0 | 0.0 | 0.12 | 0.03 | 0.03 | 91 | 1011.3 |
| 20260506141230 | 63 | 76 | 2.0 | 2.0 | 0.12 | 0.02 | 0.02 | 89 | 1011.7 |
| 20260506140727 | 64 | 131 | 2.0 | 2.0 | 0.05 | 0.01 | 0.01 | 88 | 1011.5 |
| 20260506140223 | 64 | 26 | 1.0 | 1.0 | 0.00 | 0.00 | 0.00 | 86 | 1011.5 |
| 20260506135719 | 64 | 13 | 0.0 | 1.0 | 0.00 | 0.00 | 0.00 | 84 | 1011.8 |
| 20260506135216 | 65 | 197 | 5.0 | 7.0 | 0.00 | 0.00 | 0.00 | 83 | 1011.9 |
| 20260506134714 | 65 | 38 | 0.0 | 0.0 | 0.00 | 0.00 | 0.00 | 82 | 1012.0 |
| 20260506134209 | 65 | 73 | 2.0 | 3.0 | 0.00 | 0.00 | 0.00 | 81 | 1012.1 |
| 20260506133707 | 65 | 43 | 0.0 | 0.0 | 0.00 | 0.00 | 0.00 | 81 | 1011.9 |
| 20260506133203 | 66 | 38 | 1.0 | 1.0 | 0.00 | 0.00 | 0.00 | 79 | 1011.9 |
| 20260506132701 | 66 | 229 | 4.0 | 4.0 | 0.00 | 0.00 | 0.00 | 78 | 1011.5 |
| 20260506132158 | 66 | 92 | 1.0 | 1.0 | 0.00 | 0.00 | 0.00 | 78 | 1011.4 |
| 20260506131655 | 66 | 81 | 1.0 | 2.0 | 0.00 | 0.00 | 0.00 | 77 | 1011.4 |
| 20260506131151 | 66 | 63 | 1.0 | 1.0 | 0.00 | 0.00 | 0.00 | 77 | 1011.1 |
| 20260506130648 | 66 | 25 | 1.0 | 1.0 | 0.00 | 0.00 | 0.00 | 77 | 1011.1 |
| 20260506130146 | 66 | 32 | 2.0 | 3.0 | 0.00 | 0.00 | 0.00 | 76 | 1011.1 |
| 20260506125644 | 66 | 171 | 3.0 | 7.0 | 0.00 | 0.00 | 0.00 | 76 | 1011.0 |
| 20260506125141 | 66 | 112 | 2.0 | 3.0 | 0.00 | 0.00 | 0.00 | 77 | 1011.2 |
| 20260506124638 | 66 | 160 | 2.0 | 4.0 | 0.00 | 0.00 | 0.00 | 76 | 1011.1 |
| 20260506124136 | 66 | 108 | 2.0 | 2.0 | 0.00 | 0.00 | 0.00 | 76 | 1011.3 |
| 20260506123634 | 66 | 49 | 4.0 | 7.0 | 0.00 | 0.00 | 0.00 | 77 | 1011.2 |
| 20260506123132 | 66 | 359 | 4.0 | 7.0 | 0.00 | 0.00 | 0.00 | 77 | 1011.4 |
| 20260506122629 | 66 | 105 | 3.0 | 4.0 | 0.00 | 0.00 | 0.00 | 76 | 1011.8 |
| 20260506122126 | 66 | 45 | 1.0 | 1.0 | 0.00 | 0.00 | 0.00 | 77 | 1011.6 |
| 20260506121623 | 66 | 33 | 0.0 | 1.0 | 0.00 | 0.00 | 0.00 | 78 | 1011.5 |
| 20260506121119 | 66 | 69 | 0.0 | 1.0 | 0.00 | 0.00 | 0.00 | 76 | 1011.6 |
| 20260506120618 | 66 | 35 | 0.0 | 1.0 | 0.00 | 0.00 | 0.00 | 75 | 1011.7 |
| 20260506120115 | 66 | 279 | 2.0 | 3.0 | 0.00 | 0.00 | 0.00 | 74 | 1011.5 |
| 20260506115613 | 66 | 71 | 1.0 | 3.0 | 0.00 | 0.00 | 0.00 | 74 | 1011.6 |
| 20260506115111 | 66 | 61 | 2.0 | 2.0 | 0.00 | 0.00 | 0.00 | 75 | 1011.4 |
| 20260506114608 | 67 | 148 | 4.0 | 6.0 | 0.00 | 0.00 | 0.00 | 74 | 1011.3 |
| 20260506114106 | 67 | 85 | 2.0 | 3.0 | 0.00 | 0.00 | 0.00 | 74 | 1011.3 |
| 20260506113603 | 67 | 136 | 2.0 | 3.0 | 0.00 | 0.00 | 0.00 | 74 | 1011.2 |
| 20260506113101 | 67 | 149 | 4.0 | 4.0 | 0.00 | 0.00 | 0.00 | 74 | 1011.1 |
| 20260506112557 | 66 | 276 | 1.0 | 2.0 | 0.00 | 0.00 | 0.00 | 74 | 1011.1 |
| 20260506112055 | 66 | 18 | 2.0 | 3.0 | 0.00 | 0.00 | 0.00 | 75 | 1011.1 |
| 20260506111552 | 66 | 61 | 1.0 | 1.0 | 0.00 | 0.00 | 0.00 | 76 | 1011.0 |
| 20260506111049 | 66 | 79 | 1.0 | 1.0 | 0.00 | 0.00 | 0.00 | 75 | 1010.9 |
| 20260506110547 | 66 | 57 | 1.0 | 1.0 | 0.00 | 0.00 | 0.00 | 76 | 1010.9 |
| 20260506110044 | 66 | 143 | 1.0 | 2.0 | 0.00 | 0.00 | 0.00 | 75 | 1010.7 |
| 20260506105540 | 66 | 21 | 1.0 | 1.0 | 0.00 | 0.00 | 0.00 | 75 | 1010.8 |
| 20260506105038 | 65 | 65 | 2.0 | 2.0 | 0.00 | 0.00 | 0.00 | 76 | 1010.8 |
| 20260506104536 | 65 | 172 | 3.0 | 3.0 | 0.00 | 0.00 | 0.00 | 76 | 1010.8 |
| 20260506104033 | 65 | 147 | 3.0 | 6.0 | 0.00 | 0.00 | 0.00 | 76 | 1010.7 |
| 20260506103530 | 65 | 73 | 2.0 | 2.0 | 0.00 | 0.00 | 0.00 | 76 | 1010.9 |
| 20260506103027 | 65 | 114 | 1.0 | 2.0 | 0.00 | 0.00 | 0.00 | 76 | 1010.8 |
| 20260506102525 | 65 | 185 | 3.0 | 4.0 | 0.00 | 0.00 | 0.00 | 76 | 1010.9 |
| 20260506102023 | 65 | 73 | 1.0 | 2.0 | 0.00 | 0.00 | 0.00 | 76 | 1010.8 |
| 20260506101519 | 65 | 47 | 1.0 | 3.0 | 0.00 | 0.00 | 0.00 | 76 | 1010.7 |
| 20260506101017 | 65 | 105 | 3.0 | 3.0 | 0.00 | 0.00 | 0.00 | 76 | 1010.7 |
| 20260506100515 | 65 | 109 | 2.0 | 3.0 | 0.00 | 0.00 | 0.00 | 75 | 1010.8 |
| 20260506100013 | 65 | 193 | 3.0 | 7.0 | 0.00 | 0.00 | 0.00 | 76 | 1010.8 |
| 20260506095512 | 65 | 107 | 1.0 | 2.0 | 0.00 | 0.00 | 0.00 | 76 | 1010.7 |
| 20260506095007 | 65 | 82 | 1.0 | 1.0 | 0.00 | 0.00 | 0.00 | 76 | 1010.9 |
| 20260506094505 | 65 | 92 | 2.0 | 2.0 | 0.00 | 0.00 | 0.00 | 76 | 1010.8 |
| 20260506094003 | 65 | 160 | 2.0 | 3.0 | 0.00 | 0.00 | 0.00 | 76 | 1010.8 |
| 20260506093501 | 65 | 24 | 2.0 | 2.0 | 0.00 | 0.00 | 0.00 | 76 | 1010.9 |
| 20260506092958 | 66 | 154 | 2.0 | 2.0 | 0.00 | 0.00 | 0.00 | 75 | 1010.7 |
| 20260506092456 | 66 | 48 | 1.0 | 1.0 | 0.00 | 0.00 | 0.00 | 74 | 1010.8 |
| 20260506091952 | 66 | 83 | 0.0 | 0.0 | 0.00 | 0.00 | 0.00 | 75 | 1010.7 |
| 20260506091451 | 66 | 317 | 0.0 | 0.0 | 0.00 | 0.00 | 0.00 | 74 | 1011.1 |
| 20260506090947 | 66 | 109 | 2.0 | 3.0 | 0.00 | 0.00 | 0.00 | 74 | 1011.0 |
| 20260506090445 | 66 | 44 | 1.0 | 1.0 | 0.00 | 0.00 | 0.00 | 74 | 1010.7 |
| 20260506085941 | 66 | 53 | 0.0 | 1.0 | 0.00 | 0.00 | 0.00 | 74 | 1011.1 |
| 20260506085438 | 66 | 78 | 0.0 | 0.0 | 0.00 | 0.00 | 0.00 | 73 | 1010.9 |
| 20260506084934 | 67 | 164 | 4.0 | 6.0 | 0.00 | 0.00 | 0.00 | 73 | 1011.0 |
| 20260506084432 | 67 | 122 | 1.0 | 1.0 | 0.00 | 0.00 | 0.00 | 72 | 1011.0 |
| 20260506083927 | 67 | 145 | 2.0 | 3.0 | 0.00 | 0.00 | 0.00 | 72 | 1010.9 |
| 20260506083424 | 67 | 107 | 3.0 | 4.0 | 0.00 | 0.00 | 0.00 | 71 | 1010.9 |
| 20260506082922 | 68 | 30 | 0.0 | 0.0 | 0.00 | 0.00 | 0.00 | 71 | 1011.0 |
| 20260506082419 | 68 | 143 | 4.0 | 8.0 | 0.00 | 0.00 | 0.00 | 70 | 1010.9 |
| 20260506081914 | 68 | 130 | 2.0 | 3.0 | 0.00 | 0.00 | 0.00 | 71 | 1010.9 |
| 20260506081413 | 68 | 167 | 4.0 | 4.0 | 0.00 | 0.00 | 0.00 | 70 | 1010.7 |
| 20260506080910 | 68 | 67 | 1.0 | 2.0 | 0.00 | 0.00 | 0.00 | 70 | 1010.8 |
| 20260506080406 | 68 | 82 | 1.0 | 2.0 | 0.00 | 0.00 | 0.00 | 70 | 1010.7 |
| 20260506073350 | 68 | 335 | 0.0 | 0.0 | 0.00 | 0.00 | 0.00 | 69 | 1011.0 |
| 20260506072847 | 69 | 107 | 3.0 | 4.0 | 0.00 | 0.00 | 0.00 | 68 | 1011.3 |
| 20260506072345 | 69 | 20 | 0.0 | 1.0 | 0.00 | 0.00 | 0.00 | 67 | 1011.2 |
| 20260506071842 | 69 | 6 | 2.0 | 2.0 | 0.00 | 0.00 | 0.00 | 67 | 1011.3 |
| 20260506071341 | 70 | 116 | 2.0 | 3.0 | 0.00 | 0.00 | 0.00 | 65 | 1011.1 |
| 20260506070837 | 70 | 64 | 0.0 | 1.0 | 0.00 | 0.00 | 0.00 | 64 | 1011.1 |
| 20260506070334 | 70 | 76 | 2.0 | 2.0 | 0.00 | 0.00 | 0.00 | 64 | 1011.1 |
| 20260506062311 | 71 | 182 | 8.0 | 13.0 | 0.00 | 0.00 | 0.00 | 61 | 1011.2 |
| 20260506061807 | 71 | 72 | 2.0 | 2.0 | 0.00 | 0.00 | 0.00 | 61 | 1011.5 |